Time,TemperatureF,DewpointF,PressureIn,WindDirection,WindDirectionDegrees,WindSpeedMPH,WindSpeedGustMPH,Humidity,HourlyPrecipIn,Conditions,Clouds,dailyrainin,SoftwareType,DateUTC
2013-02-26 00:13:00,31.5,31.3,30.15,ESE,112,0.0,-999.0,99,-99.99,,,0.00,Acu-Link.com,2013-02-26 05:13:00,
2013-02-26 00:28:00,31.8,31.6,30.16,ESE,112,0.0,-999.0,99,-99.99,,,0.00,Acu-Link.com,2013-02-26 05:28:00,
2013-02-26 00:44:00,31.6,31.4,30.15,ESE,112,0.0,-999.0,99,-99.99,,,0.00,Acu-Link.com,2013-02-26 05:44:00,
2013-02-26 00:59:00,31.5,31.3,30.15,ESE,112,0.0,-999.0,99,-99.99,,,0.00,Acu-Link.com,2013-02-26 05:59:00,
2013-02-26 01:14:00,31.5,31.3,30.15,ESE,112,0.0,-999.0,99,-99.99,,,0.00,Acu-Link.com,2013-02-26 06:14:00,
2013-02-26 01:29:00,31.5,31.3,30.15,ESE,112,0.0,-999.0,99,-99.99,,,0.00,Acu-Link.com,2013-02-26 06:29:00,
2013-02-26 01:45:00,31.3,31.1,30.15,ESE,112,0.0,-999.0,99,-99.99,,,0.00,Acu-Link.com,2013-02-26 06:45:00,
2013-02-26 02:00:00,31.1,30.9,30.15,ESE,112,0.0,-999.0,99,-99.99,,,0.00,Acu-Link.com,2013-02-26 07:00:00,
2013-02-26 02:15:00,30.9,30.7,30.15,ESE,112,0.0,-999.0,99,-99.99,,,0.00,Acu-Link.com,2013-02-26 07:15:00,
2013-02-26 02:30:00,30.9,30.7,30.14,ESE,112,0.0,-999.0,99,-99.99,,,0.00,Acu-Link.com,2013-02-26 07:30:00,
2013-02-26 02:45:00,30.9,30.7,30.15,ESE,112,0.0,-999.0,99,-99.99,,,0.00,Acu-Link.com,2013-02-26 07:45:00,
2013-02-26 03:00:00,31.3,31.1,30.17,ESE,112,0.0,-999.0,99,-99.99,,,0.00,Acu-Link.com,2013-02-26 08:00:00,
2013-02-26 03:15:00,30.9,30.7,30.18,ESE,112,0.0,-999.0,99,-99.99,,,0.00,Acu-Link.com,2013-02-26 08:15:00,
2013-02-26 03:30:00,30.7,30.5,30.19,ESE,112,0.0,-999.0,99,-99.99,,,0.00,Acu-Link.com,2013-02-26 08:30:00,
2013-02-26 03:46:00,30.7,30.5,30.19,ESE,112,0.0,-999.0,99,-99.99,,,0.00,Acu-Link.com,2013-02-26 08:46:00,
2013-02-26 07:04:00,28.0,27.8,30.21,ESE,112,0.0,-999.0,99,-99.99,,,0.00,Acu-Link.com,2013-02-26 12:04:00,
2013-02-26 07:19:00,28.6,28.4,30.21,ESE,112,0.0,-999.0,99,-99.99,,,0.00,Acu-Link.com,2013-02-26 12:19:00,
2013-02-26 07:34:00,30.9,30.7,30.22,ESE,112,0.0,-999.0,99,-99.99,,,0.00,Acu-Link.com,2013-02-26 12:34:00,
2013-02-26 07:49:00,33.4,33.1,30.22,NW,315,0.0,-999.0,99,-99.99,,,0.00,Acu-Link.com,2013-02-26 12:49:00,
2013-02-26 08:04:00,36.1,35.8,30.22,NNW,337,0.0,-999.0,99,-99.99,,,0.00,Acu-Link.com,2013-02-26 13:04:00,
2013-02-26 08:19:00,40.5,37.8,30.23,East,90,0.0,-999.0,90,-99.99,,,0.00,Acu-Link.com,2013-02-26 13:19:00,
2013-02-26 08:35:00,44.6,36.5,30.24,NW,315,1.7,-999.0,73,-99.99,,,0.01,Acu-Link.com,2013-02-26 13:35:00,
2013-02-26 08:50:00,46.4,36.8,30.24,WNW,292,2.2,-999.0,69,-99.99,,,0.01,Acu-Link.com,2013-02-26 13:50:00,
2013-02-26 09:05:00,38.5,33.2,30.24,South,180,2.2,-999.0,81,-99.99,,,0.01,Acu-Link.com,2013-02-26 14:05:00,
2013-02-26 09:20:00,39.9,33.0,30.24,ESE,112,1.1,-999.0,76,-99.99,,,0.01,Acu-Link.com,2013-02-26 14:20:00,
2013-02-26 09:35:00,42.4,33.7,30.23,NNE,22,3.7,-999.0,71,-99.99,,,0.01,Acu-Link.com,2013-02-26 14:35:00,
2013-02-26 09:50:00,43.5,34.0,30.23,SSE,157,2.2,-999.0,69,-99.99,,,0.01,Acu-Link.com,2013-02-26 14:50:00,
2013-02-26 10:05:00,45.1,34.4,30.23,ENE,67,4.7,-999.0,66,-99.99,,,0.01,Acu-Link.com,2013-02-26 15:05:00,
2013-02-26 10:21:00,44.1,31.5,30.23,NE,45,2.7,-999.0,61,-99.99,,,0.01,Acu-Link.com,2013-02-26 15:21:00,
2013-02-26 10:36:00,46.0,32.9,30.22,ENE,67,2.7,-999.0,60,-99.99,,,0.01,Acu-Link.com,2013-02-26 15:36:00,
2013-02-26 10:51:00,45.1,31.2,30.23,South,180,2.2,-999.0,58,-99.99,,,0.01,Acu-Link.com,2013-02-26 15:51:00,
2013-02-26 11:06:00,47.1,30.9,30.23,WNW,292,3.2,-999.0,53,-99.99,,,0.01,Acu-Link.com,2013-02-26 16:06:00,
2013-02-26 11:21:00,45.7,30.5,30.23,East,90,5.3,-999.0,55,-99.99,,,0.01,Acu-Link.com,2013-02-26 16:21:00,
2013-02-26 11:36:00,47.7,29.5,30.22,NW,315,1.7,-999.0,49,-99.99,,,0.01,Acu-Link.com,2013-02-26 16:36:00,
2013-02-26 11:51:00,44.6,29.0,30.22,NNE,22,3.7,-999.0,54,-99.99,,,0.01,Acu-Link.com,2013-02-26 16:51:00,
2013-02-26 12:06:00,45.9,30.2,30.22,WNW,292,2.7,-999.0,54,-99.99,,,0.01,Acu-Link.com,2013-02-26 17:06:00,
2013-02-26 12:22:00,44.1,29.0,30.22,NW,315,2.7,-999.0,55,-99.99,,,0.01,Acu-Link.com,2013-02-26 17:22:00,
2013-02-26 12:37:00,45.1,29.0,30.22,SE,135,3.7,-999.0,53,-99.99,,,0.01,Acu-Link.com,2013-02-26 17:37:00,
2013-02-26 12:52:00,43.9,28.3,30.21,SW,225,4.2,-999.0,54,-99.99,,,0.01,Acu-Link.com,2013-02-26 17:52:00,
2013-02-26 13:07:00,46.0,28.4,30.20,North,0,4.7,-999.0,50,-99.99,,,0.01,Acu-Link.com,2013-02-26 18:07:00,
2013-02-26 13:22:00,45.3,28.3,30.21,North,0,3.7,-999.0,51,-99.99,,,0.01,Acu-Link.com,2013-02-26 18:22:00,
2013-02-26 13:37:00,45.3,28.3,30.20,NNW,337,3.2,-999.0,51,-99.99,,,0.01,Acu-Link.com,2013-02-26 18:37:00,
2013-02-26 13:52:00,47.5,28.3,30.20,NE,45,4.7,-999.0,47,-99.99,,,0.01,Acu-Link.com,2013-02-26 18:52:00,
2013-02-26 14:07:00,48.2,28.9,30.19,ENE,67,7.8,-999.0,47,-99.99,,,0.01,Acu-Link.com,2013-02-26 19:07:00,
2013-02-26 14:22:00,46.8,29.6,30.18,NNE,22,4.2,-999.0,51,-99.99,,,0.01,Acu-Link.com,2013-02-26 19:22:00,
2013-02-26 14:37:00,45.3,29.6,30.17,ESE,112,2.2,-999.0,54,-99.99,,,0.01,Acu-Link.com,2013-02-26 19:37:00,
2013-02-26 14:53:00,45.1,29.5,30.17,NE,45,2.7,-999.0,54,-99.99,,,0.01,Acu-Link.com,2013-02-26 19:53:00,
2013-02-26 15:08:00,44.2,29.1,30.17,ENE,67,3.2,-999.0,55,-99.99,,,0.01,Acu-Link.com,2013-02-26 20:08:00,
2013-02-26 15:23:00,44.8,29.6,30.16,NE,45,3.2,-999.0,55,-99.99,,,0.01,Acu-Link.com,2013-02-26 20:23:00,
2013-02-26 15:38:00,43.9,29.2,30.17,NNE,22,5.8,-999.0,56,-99.99,,,0.01,Acu-Link.com,2013-02-26 20:38:00,
2013-02-26 15:53:00,43.3,29.5,30.17,East,90,1.1,-999.0,58,-99.99,,,0.01,Acu-Link.com,2013-02-26 20:53:00,
2013-02-26 16:08:00,42.6,28.4,30.17,North,0,4.2,-999.0,57,-99.99,,,0.01,Acu-Link.com,2013-02-26 21:08:00,
2013-02-26 16:23:00,42.3,27.3,30.17,North,0,3.2,-999.0,55,-99.99,,,0.01,Acu-Link.com,2013-02-26 21:23:00,
2013-02-26 16:38:00,41.4,26.5,30.16,ESE,112,5.3,-999.0,55,-99.99,,,0.01,Acu-Link.com,2013-02-26 21:38:00,
2013-02-26 16:53:00,40.1,25.7,30.16,North,0,4.2,-999.0,56,-99.99,,,0.01,Acu-Link.com,2013-02-26 21:53:00,
2013-02-26 17:09:00,39.4,25.9,30.17,ESE,112,2.7,-999.0,58,-99.99,,,0.01,Acu-Link.com,2013-02-26 22:09:00,
2013-02-26 17:24:00,38.5,25.8,30.17,East,90,2.2,-999.0,60,-99.99,,,0.01,Acu-Link.com,2013-02-26 22:24:00,
2013-02-26 17:39:00,37.6,25.8,30.17,ESE,112,1.1,-999.0,62,-99.99,,,0.01,Acu-Link.com,2013-02-26 22:39:00,
2013-02-26 17:54:00,36.9,26.3,30.16,WNW,292,3.2,-999.0,65,-99.99,,,0.01,Acu-Link.com,2013-02-26 22:54:00,
2013-02-26 18:09:00,36.3,26.4,30.17,NW,315,2.7,-999.0,67,-99.99,,,0.01,Acu-Link.com,2013-02-26 23:09:00,
2013-02-26 18:24:00,36.0,26.8,30.16,NNE,22,3.7,-999.0,69,-99.99,,,0.01,Acu-Link.com,2013-02-26 23:24:00,
2013-02-26 18:39:00,35.4,26.6,30.17,NNW,337,0.0,-999.0,70,-99.99,,,0.01,Acu-Link.com,2013-02-26 23:39:00,
2013-02-26 18:55:00,34.9,27.1,30.15,WNW,292,1.7,-999.0,73,-99.99,,,0.01,Acu-Link.com,2013-02-26 23:55:00,
2013-02-26 19:10:00,34.7,27.3,30.16,NNW,337,1.1,-999.0,74,-99.99,,,0.01,Acu-Link.com,2013-02-27 00:10:00,
2013-02-26 19:25:00,34.3,27.2,30.15,ENE,67,1.7,-999.0,75,-99.99,,,0.01,Acu-Link.com,2013-02-27 00:25:00,
2013-02-26 19:40:00,34.2,27.8,30.15,ESE,112,0.0,-999.0,77,-99.99,,,0.01,Acu-Link.com,2013-02-27 00:40:00,
2013-02-26 19:55:00,33.6,27.5,30.16,NNE,22,0.0,-999.0,78,-99.99,,,0.01,Acu-Link.com,2013-02-27 00:55:00,
2013-02-26 20:11:00,33.6,28.1,30.16,WNW,292,1.1,-999.0,80,-99.99,,,0.01,Acu-Link.com,2013-02-27 01:11:00,
2013-02-26 20:26:00,33.4,28.5,30.16,East,90,0.0,-999.0,82,-99.99,,,0.01,Acu-Link.com,2013-02-27 01:26:00,
2013-02-26 20:41:00,33.1,28.5,30.14,NW,315,0.0,-999.0,83,-99.99,,,0.01,Acu-Link.com,2013-02-27 01:41:00,
2013-02-26 20:56:00,32.9,28.9,30.13,ESE,112,2.2,-999.0,85,-99.99,,,0.01,Acu-Link.com,2013-02-27 01:56:00,
2013-02-26 21:11:00,33.3,29.3,30.12,North,0,2.7,-999.0,85,-99.99,,,0.01,Acu-Link.com,2013-02-27 02:11:00,
2013-02-26 21:26:00,33.3,29.0,30.12,NNW,337,2.7,-999.0,84,-99.99,,,0.01,Acu-Link.com,2013-02-27 02:26:00,
2013-02-26 21:41:00,33.3,29.3,30.11,North,0,1.7,-999.0,85,-99.99,,,0.01,Acu-Link.com,2013-02-27 02:41:00,
2013-02-26 21:56:00,33.3,29.6,30.11,ENE,67,1.1,-999.0,86,-99.99,,,0.01,Acu-Link.com,2013-02-27 02:56:00,
2013-02-26 22:11:00,33.1,29.4,30.10,NNW,337,2.2,-999.0,86,-99.99,,,0.01,Acu-Link.com,2013-02-27 03:11:00,
2013-02-26 22:26:00,33.4,30.0,30.09,NNW,337,3.7,-999.0,87,-99.99,,,0.01,Acu-Link.com,2013-02-27 03:26:00,
2013-02-26 22:42:00,34.0,30.3,30.08,NNE,22,3.7,-999.0,86,-99.99,,,0.01,Acu-Link.com,2013-02-27 03:42:00,
2013-02-26 22:57:00,34.5,30.5,30.08,NE,45,1.7,-999.0,85,-99.99,,,0.01,Acu-Link.com,2013-02-27 03:57:00,
2013-02-26 23:12:00,34.9,30.6,30.06,NE,45,4.2,-999.0,84,-99.99,,,0.01,Acu-Link.com,2013-02-27 04:12:00,
2013-02-26 23:27:00,35.2,30.9,30.05,NE,45,2.7,-999.0,84,-99.99,,,0.01,Acu-Link.com,2013-02-27 04:27:00,
2013-02-26 23:42:00,35.6,31.3,30.05,East,90,2.7,-999.0,84,-99.99,,,0.01,Acu-Link.com,2013-02-27 04:42:00,
2013-02-26 23:57:00,36.0,31.6,30.06,NE,45,3.2,-999.0,84,-99.99,,,0.01,Acu-Link.com,2013-02-27 04:57:00,